Stations météo

Publicité
Kleine Brogel, Belgique (6479): Température de l'air & dewpoint: 14.08.2019 13:00:00 - 20.08.2019 13:00:00 (CEST)Kleine Brogel, Belgique (6479): Vitesse du vent & gusts: 14.08.2019 13:00:00 - 20.08.2019 13:00:00 (CEST)Kleine Brogel, Belgique (6479): Direction du vent: 14.08.2019 13:00:00 - 20.08.2019 13:00:00 (CEST)Kleine Brogel, Belgique (6479): reduced air pressure: 14.08.2019 13:00:00 - 20.08.2019 13:00:00 (CEST)Kleine Brogel, Belgique (6479): visibility: 14.08.2019 13:00:00 - 20.08.2019 13:00:00 (CEST)
Date & Time tt [°C] td [°C] ff [km/h] ff [knt] fx [km/h] fx [knt] dd ppp [hPa] vv [km]
20.08.2019 13:00:00 20,0 10,6 18 10 25 14 SW 1023,1 20
20.08.2019 12:00:00 19,0 11,0 14 8 25 14 WSW 1023,0 20
20.08.2019 11:00:00 18,0 12,3 11 6 - - WSW 1022,7 20
20.08.2019 10:00:00 16,0 12,0 11 6 18 10 SW 1022,8 20
20.08.2019 09:00:00 15,0 11,9 11 6 18 10 WSW 1022,3 20
20.08.2019 08:00:00 13,0 11,1 11 6 - - SSW 1022,3 20
20.08.2019 07:00:00 11,0 9,9 7 4 11 6 SSW 1021,7 20
20.08.2019 06:00:00 11,0 9,5 7 4 11 6 SSW 1021,1 20
20.08.2019 05:00:00 11,0 9,1 7 4 - - SSW 1021,1 20
20.08.2019 04:00:00 12,0 9,5 7 4 11 6 SSW 1021,0 20
20.08.2019 03:00:00 12,0 8,8 7 4 14 8 SSW 1020,8 20
20.08.2019 02:00:00 12,0 8,8 4 2 - - N 1020,8 20
20.08.2019 01:00:00 13,5 9,2 4 2 14 8 N 1020,6 20
20.08.2019 00:00:00 14,0 9,1 11 6 14 8 WSW 1020,0 20
19.08.2019 23:00:00 15,2 9,7 11 6 - - SW 1019,6 20
19.08.2019 22:00:00 16,0 9,8 4 2 11 6 N 1019,1 20
19.08.2019 21:00:00 18,0 9,8 7 4 29 16 SW 1018,7 20
19.08.2019 20:00:00 19,0 9,7 11 6 - - WSW 1018,2 20
19.08.2019 19:00:00 20,0 10,1 18 10 32 18 WSW 1017,8 20
19.08.2019 18:00:00 20,0 10,4 22 12 32 18 WSW 1017,8 20
19.08.2019 17:00:00 20,0 10,1 18 10 - - WSW 1017,5 20
19.08.2019 16:00:00 21,0 10,5 18 10 36 19 W 1017,3 20
19.08.2019 15:00:00 20,0 11,4 18 10 36 19 WSW 1017,4 20
19.08.2019 14:00:00 19,0 10,5 22 12 - - WSW 1017,0 20
19.08.2019 13:00:00 20,0 11,2 18 10 36 19 WSW 1016,7 20
19.08.2019 12:00:00 19,0 11,1 22 12 36 19 SW 1016,4 20
19.08.2019 11:00:00 18,0 11,2 25 14 - - WSW 1016,1 20
19.08.2019 10:00:00 - - - - - - - - -
19.08.2019 09:00:00 16,2 11,5 22 12 32 18 SW 1015,8 20
19.08.2019 08:00:00 13,0 10,5 14 8 - - SW 1015,2 20
19.08.2019 07:00:00 12,0 10,4 11 6 18 10 SSW 1014,8 15
19.08.2019 06:00:00 - - - - - - - - -
19.08.2019 05:00:00 - - - - - - - - -
19.08.2019 04:00:00 - - - - - - - - -
19.08.2019 03:00:00 - - - - - - - - -
19.08.2019 02:00:00 - - - - - - - - -
19.08.2019 01:00:00 - - - - - - - - -
19.08.2019 00:00:00 - - - - - - - - -
18.08.2019 23:00:00 - - - - - - - - -
18.08.2019 22:00:00 - - - - - - - - -
18.08.2019 21:00:00 - - - - - - - - -
18.08.2019 20:00:00 - - - - - - - - -
18.08.2019 19:00:00 - - - - - - - - -
18.08.2019 18:00:00 - - - - - - - - -
18.08.2019 17:00:00 - - - - - - - - -
18.08.2019 16:00:00 - - - - - - - - -
18.08.2019 15:00:00 - - - - - - - - -
18.08.2019 14:00:00 - - - - - - - - -
18.08.2019 13:00:00 - - - - - - - - -
18.08.2019 12:00:00 - - - - - - - - -
18.08.2019 11:00:00 - - - - - - - - -
18.08.2019 10:00:00 - - - - - - - - -
18.08.2019 09:00:00 - - - - - - - - -
18.08.2019 08:00:00 - - - - - - - - -
18.08.2019 07:00:00 - - - - - - - - -
18.08.2019 06:00:00 - - - - - - - - -
18.08.2019 05:00:00 - - - - - - - - -
18.08.2019 04:00:00 - - - - - - - - -
18.08.2019 03:00:00 - - - - - - - - -
18.08.2019 02:00:00 - - - - - - - - -
18.08.2019 01:00:00 - - - - - - - - -
18.08.2019 00:00:00 - - - - - - - - -
17.08.2019 23:00:00 - - - - - - - - -
17.08.2019 22:00:00 - - - - - - - - -
17.08.2019 21:00:00 - - - - - - - - -
17.08.2019 20:00:00 - - - - - - - - -
17.08.2019 19:00:00 - - - - - - - - -
17.08.2019 18:00:00 - - - - - - - - -
17.08.2019 17:00:00 - - - - - - - - -
17.08.2019 16:00:00 - - - - - - - - -
17.08.2019 15:00:00 - - - - - - - - -
17.08.2019 14:00:00 - - - - - - - - -
17.08.2019 13:00:00 - - - - - - - - -
17.08.2019 12:00:00 - - - - - - - - -
17.08.2019 11:00:00 - - - - - - - - -
17.08.2019 10:00:00 - - - - - - - - -
17.08.2019 09:00:00 - - - - - - - - -
17.08.2019 08:00:00 - - - - - - - - -
17.08.2019 07:00:00 - - - - - - - - -
17.08.2019 06:00:00 - - - - - - - - -
17.08.2019 05:00:00 - - - - - - - - -
17.08.2019 04:00:00 - - - - - - - - -
17.08.2019 03:00:00 - - - - - - - - -
17.08.2019 02:00:00 - - - - - - - - -
17.08.2019 01:00:00 - - - - - - - - -
17.08.2019 00:00:00 - - - - - - - - -
16.08.2019 23:00:00 - - - - - - - - -
16.08.2019 22:00:00 - - - - - - - - -
16.08.2019 21:00:00 - - - - - - - - -
16.08.2019 20:00:00 - - - - - - - - -
16.08.2019 19:00:00 - - - - - - - - -
16.08.2019 18:00:00 - - - - - - - - -
16.08.2019 17:00:00 - - - - - - - - -
16.08.2019 16:00:00 - - - - - - - - -
16.08.2019 15:00:00 - - - - - - - - -
16.08.2019 14:00:00 - - - - - - - - -
16.08.2019 13:00:00 - - - - - - - - -
16.08.2019 12:00:00 - - - - - - - - -
16.08.2019 11:00:00 - - - - - - - - -
16.08.2019 10:00:00 - - - - - - - - -
16.08.2019 09:00:00 - - - - - - - - -
16.08.2019 08:00:00 - - - - - - - - -
16.08.2019 07:00:00 - - - - - - - - -
16.08.2019 06:00:00 - - - - - - - - -
16.08.2019 05:00:00 - - - - - - - - -
16.08.2019 04:00:00 - - - - - - - - -
16.08.2019 03:00:00 - - - - - - - - -
16.08.2019 02:00:00 - - - - - - - - -
16.08.2019 01:00:00 - - - - - - - - -
16.08.2019 00:00:00 - - - - - - - - -
15.08.2019 23:00:00 - - - - - - - - -
15.08.2019 22:00:00 - - - - - - - - -
15.08.2019 21:00:00 - - - - - - - - -
15.08.2019 20:00:00 - - - - - - - - -
15.08.2019 19:00:00 - - - - - - - - -
15.08.2019 18:00:00 - - - - - - - - -
15.08.2019 17:00:00 - - - - - - - - -
15.08.2019 16:00:00 - - - - - - - - -
15.08.2019 15:00:00 - - - - - - - - -
15.08.2019 14:00:00 - - - - - - - - -
15.08.2019 13:00:00 - - - - - - - - -
15.08.2019 12:00:00 - - - - - - - - -
15.08.2019 11:00:00 - - - - - - - - -
15.08.2019 10:00:00 - - - - - - - - -
15.08.2019 09:00:00 - - - - - - - - -
15.08.2019 08:00:00 - - - - - - - - -
15.08.2019 07:00:00 - - - - - - - - -
15.08.2019 06:00:00 - - - - - - - - -
15.08.2019 05:00:00 - - - - - - - - -
15.08.2019 04:00:00 - - - - - - - - -
15.08.2019 03:00:00 - - - - - - - - -
15.08.2019 02:00:00 - - - - - - - - -
15.08.2019 01:00:00 - - - - - - - - -
15.08.2019 00:00:00 - - - - - - - - -
14.08.2019 23:00:00 - - - - - - - - -
14.08.2019 22:00:00 - - - - - - - - -
14.08.2019 21:00:00 - - - - - - - - -
14.08.2019 20:00:00 - - - - - - - - -
14.08.2019 19:00:00 - - - - - - - - -
14.08.2019 18:00:00 - - - - - - - - -
14.08.2019 17:00:00 - - - - - - - - -
14.08.2019 16:00:00 - - 14 8 36 19 SSW 1016,9 15
14.08.2019 15:00:00 20,0 10,0 14 8 29 16 SSW 1017,4 15
14.08.2019 14:00:00 20,0 10,8 15 8 - - SSW 1017,6 10
14.08.2019 13:00:00 19,0 10,3 14 8 29 16 SW 1018,2 15

tt = Température de l'air
td = dewpoint
ff = Vitesse du vent
fx = gusts
dd = Direction du vent
ppp = reduced air pressure
vv = visibility

stations d'obs. à proximité